Regional Weather Roundup
Issued by NWS

Home | Current Version | Previous Version | Graphics & Text | Print | Product List | Glossary Off
Versions: 1 2 3 4 5 6 7 8 9 10 11 12 13 14 15 16 17 18 19 20 21 22 23 24 25 26 27 28 29 30 31 32 33 34 35 36 37 38 39 40 41 42 43 44 45 46 47 48 49 50

000
ASUS43 KDMX 192107
RWRIA

WEATHER ROUNDUP FOR IOWA
NATIONAL WEATHER SERVICE DES MOINES IA
400 PM CDT TUE AUG 19 2014

NOTE: "FAIR" INDICATES FEW OR NO CLOUDS BELOW 12,000 FEET WITH NO
SIGNIFICANT WEATHER AND/OR OBSTRUCTIONS TO VISIBILITY.

* - THESE STATIONS ARE NOT NWS STATIONS...THUS NOT UNDER NWS
QUALITY CONTROL.  THEY ALSO DO NOT REPORT WEATHER SUCH
AS PRECIPITATION OR FOG.

IAZ001>003-012>014-020>022-031>034-043>046-192200-
   NORTHWEST IOWA

CITY           SKY/WX    TMP DP  RH WIND       PRES   REMARKS
CARROLL *      MOSUNNY   81  64  57 NW7       29.81S HX  82
CHEROKEE *     SUNNY     82  64  54 NW5       29.81F HX  84
DENISON *      SUNNY     82  66  57 CALM      29.80F HX  85
LE MARS *      SUNNY     82  64  54 CALM      29.81F HX  84
ORANGE CITY *  SUNNY     82  61  47 W6        29.82F HX  83
SHELDON *      SUNNY     81  66  61 CALM      29.81S HX  83
SIOUX CITY     SUNNY     86  64  47 CALM      29.80F HX  87
SPENCER        SUNNY     82  64  54 W6        29.81F HX  83
STORM LAKE *   MOSUNNY   81  68  65 CALM      29.83S HX  83
$$

IAZ055>058-069>071-079>083-090>094-192200-
   SOUTHWEST IOWA

CITY           SKY/WX    TMP DP  RH WIND       PRES   REMARKS
ATLANTIC *     SUNNY     84  64  51 VRB5      29.81F HX  86
AUDUBON *      SUNNY     86  68  54 NW3       29.83F HX  89
CLARINDA *     SUNNY     86  66  51 CALM      29.81F HX  88
COUNCIL BLFS * SUNNY     86  66  51 VRB7      29.80S HX  88
CRESTON *      SUNNY     82  64  54 W7        29.83S HX  84
HARLAN  *      SUNNY     82  64  54 CALM      29.84F HX  84
LAMONI         SUNNY     85  66  53 NW5       29.81F HX  87
RED OAK *      SUNNY     86  66  51 NE5       29.80F HX  88
SHENANDOAH *   SUNNY     88  68  51 CALM      29.80F HX  91
$$

IAZ047>049-059>061-072>074-084-192200-
   CENTRAL IOWA

CITY           SKY/WX    TMP DP  RH WIND       PRES   REMARKS
AMES           SUNNY     83  63  50 W8        29.80S HX  84
ANKENY *       SUNNY     84  64  51 W7G14     29.79F HX  86
CHARITON *     SUNNY     82  66  57 NW8       29.80F HX  85
DES MOINES     MOSUNNY   86  63  45 W9        29.79F HX  87
GRINNELL*      MOSUNNY   82  64  54 NW7       29.80F HX  84
KNOXVILLE *    SUNNY     82  64  54 W12       29.79S HX  84
MARSHALLTOWN   MOSUNNY   83  63  50 W12       29.79F HX  84
PELLA *        MOSUNNY   86  66  51 W7        29.80F HX  88
PERRY *          N/A     82  64  54 N3        29.81S HX  84
$$

IAZ004>006-015-016-023>025-035-036-192200-
   NORTH CENTRAL IOWA

CITY           SKY/WX    TMP DP  RH WIND       PRES   REMARKS
ALGONA *       MOSUNNY   81  64  57 VRB5      29.80F HX  82
CLARION *      MOSUNNY   81  64  57 VRB5      29.80F HX  82
ESTHERVILLE    CLOUDY    80  64  58 SW8       29.79F HX  82
FORT DODGE *   MOSUNNY   81  63  54 SW6       29.81F HX  82
MASON CITY     SUNNY     83  64  52 VRB6      29.80F HX  84
FOREST CITY *  PTSUNNY   82  63  51 W13       29.79F HX  83
IOWA FALLS *     N/A     81  63  54 NW7       29.81F HX  82
$$

IAZ007>011-017>019-026>030-037>042-050>054-066-192200-
   NORTHEAST IOWA

CITY           SKY/WX    TMP DP  RH WIND       PRES   REMARKS
CEDAR RAPIDS   MOSUNNY   84  64  50 W12       29.76F HX  85
CHARLES CITY * PTSUNNY   79  64  61 NW12G18   29.79S HX  81
CLINTON *      PTSUNNY   84  64  51 W17       29.76S HX  86
DECORAH *      MOSUNNY   77  63  61 NW9G17    29.75F
DUBUQUE        MOSUNNY   81  62  52 W12       29.75F HX  82
MONTICELLO *   MOSUNNY   82  64  54 W8G15     29.75S HX  84
OELWEIN *      MOSUNNY   81  64  57 W12       29.78S HX  82
WATERLOO       MOSUNNY   82  62  50 W12       29.77S HX  83
$$

IAZ064-065-067-068-078-192200-
   EAST CENTRAL IOWA

CITY           SKY/WX    TMP DP  RH WIND       PRES   REMARKS
DAVENPORT      MOSUNNY   84  64  50 W14       29.75S HX  85
IOWA CITY      MOSUNNY   83  65  54 W10       29.77F HX  85
MT. PLEASANT * MOSUNNY   88  57  35 W14       29.78S HX  86
MUSCATINE *    SUNNY     86  63  45 W13       29.76S HX  87
QUAD CITIES    MOSUNNY   87  62  43 W16       29.73F HX  87
$$

IAZ062-063-075>077-085>089-095>099-192200-
   SOUTHEAST IOWA

CITY           SKY/WX    TMP DP  RH WIND       PRES   REMARKS
BURLINGTON     SUNNY     84  71  65 W7        29.77F HX  89
FAIRFIELD *    MOSUNNY   84  66  54 W12       29.79S HX  86
FORT MADISON * MOSUNNY   86  73  66 W5        29.79S HX  93
KEOKUK *       MOSUNNY   84  73  70 SW12      29.77F HX  91
OSKALOOSA *      N/A     82  68  61 NW8       29.80S HX  85
CENTERVILLE *  SUNNY     84  70  61 W6        29.82S HX  88
OTTUMWA        MOSUNNY   85  66  53 NW9       29.79F HX  87
WASHINGTON *   MOSUNNY   84  66  54 NW13G18   29.78S HX  86
$$

ABBREVIATIONS USED IN REMARKS
   TC - TEMPERATURES IN CELSIUS
  WCI - WIND CHILL INDEX
   HX - HEAT INDEX
  VSB - VISIBILITY
$$




USA.gov is the U.S. government's official web portal to all federal, state and local government web resources and services.